EW6539 Weather Reports


time (UTC)temp
C
wind
direction
speed
KPH
gust
KPH
rain 1hr
cm
rain 24hr
cm
rain mn
cm
humidity
%
barometer
mb
20260504215037 22 238 8.0 25.7 0.00 0.00 0.00 31 1010.8
20260504214541 22 231 9.7 25.7 0.00 0.00 0.00 31 1010.8
20260504214055 22 261 8.0 24.1 0.00 0.00 0.00 30 1010.7
20260504213536 22 263 3.2 22.5 0.00 0.00 0.00 32 1010.8
20260504213049 22 330 4.8 22.5 0.00 0.00 0.00 31 1011.0
20260504212537 22 238 4.8 19.3 0.00 0.00 0.00 31 1010.9
20260504212039 22 198 4.8 22.5 0.00 0.00 0.00 31 1010.9
20260504211542 22 239 8.0 22.5 0.00 0.00 0.00 31 1011.1
20260504211036 22 248 11.3 19.3 0.00 0.00 0.00 31 1011.0
20260504210536 22 0 6.4 22.5 0.00 0.00 0.00 33 1010.9
20260504210047 22 229 8.0 24.1 0.00 0.00 0.00 32 1010.9
20260504205536 22 250 8.0 24.1 0.00 0.00 0.00 31 1011.1
20260504205037 22 220 11.3 22.5 0.00 0.00 0.00 31 1010.9
20260504204547 22 223 4.8 22.5 0.00 0.00 0.00 33 1011.0
20260504204040 22 234 8.0 20.9 0.00 0.00 0.00 31 1011.1
20260504203536 22 222 8.0 17.7 0.00 0.00 0.00 31 1010.9
20260504203049 22 269 6.4 17.7 0.00 0.00 0.00 30 1011.0
20260504202537 22 248 8.0 17.7 0.00 0.00 0.00 30 1011.0
20260504202036 22 229 6.4 16.1 0.00 0.00 0.00 33 1011.0
20260504201547 22 247 4.8 19.3 0.00 0.00 0.00 32 1011.0
20260504201040 22 233 6.4 19.3 0.00 0.00 0.00 33 1011.1
20260504200536 22 254 8.0 17.7 0.00 0.00 0.00 31 1011.1
20260504200045 22 275 6.4 19.3 0.00 0.00 0.00 32 1011.0
20260504195536 22 219 4.8 22.5 0.00 0.00 0.00 33 1011.1
20260504195036 22 269 8.0 22.5 0.00 0.00 0.00 32 1011.2
20260504194552 22 194 8.0 20.9 0.00 0.00 0.00 33 1011.3
20260504194038 22 302 3.2 24.1 0.00 0.00 0.00 35 1011.2
20260504193536 21 200 8.0 24.1 0.00 0.00 0.00 33 1011.3
20260504193047 22 166 8.0 24.1 0.00 0.00 0.00 32 1011.4
20260504192536 21 263 4.8 19.3 0.00 0.00 0.00 35 1011.4
20260504192037 21 248 4.8 19.3 0.00 0.00 0.00 32 1011.4
20260504191610 21 227 8.0 20.9 0.00 0.00 0.00 33 1011.6
20260504191036 21 219 8.0 22.5 0.00 0.00 0.00 33 1011.6
20260504190536 21 294 8.0 25.7 0.00 0.00 0.00 34 1011.7
20260504190049 21 324 8.0 25.7 0.00 0.00 0.00 32 1011.8
20260504185537 21 248 8.0 25.7 0.00 0.00 0.00 34 1012.0
20260504185036 21 319 9.7 24.1 0.00 0.00 0.00 32 1012.0
20260504184556 21 302 8.0 20.9 0.00 0.00 0.00 34 1012.1
20260504184037 21 154 8.0 19.3 0.00 0.00 0.00 33 1012.2
20260504183537 21 266 6.4 24.1 0.00 0.00 0.00 33 1012.2
20260504183046 21 232 6.4 24.1 0.00 0.00 0.00 34 1012.3
20260504182536 21 223 8.0 24.1 0.00 0.00 0.00 33 1012.3
20260504182036 21 262 9.7 19.3 0.00 0.00 0.00 34 1012.5
20260504181546 21 221 6.4 20.9 0.00 0.00 0.00 35 1012.4
20260504181037 21 273 3.2 22.5 0.00 0.00 0.00 35 1012.6
20260504180536 21 260 8.0 22.5 0.00 0.00 0.00 33 1012.8
20260504180051 20 261 8.0 24.1 0.00 0.00 0.00 34 1012.7
20260504175538 20 322 6.4 27.4 0.00 0.00 0.00 35 1012.8
20260504175037 20 146 9.7 27.4 0.00 0.00 0.00 33 1012.9
20260504174548 20 192 4.8 19.3 0.00 0.00 0.00 33 1012.9
20260504174037 20 225 9.7 19.3 0.00 0.00 0.00 35 1013.0
20260504173536 20 266 3.2 25.7 0.00 0.00 0.00 35 1013.0
20260504173047 20 210 6.4 25.7 0.00 0.00 0.00 34 1013.1
20260504172536 20 223 8.0 27.4 0.00 0.00 0.00 35 1013.3
20260504172039 20 265 8.0 27.4 0.00 0.00 0.00 36 1013.3
20260504171546 20 271 6.4 27.4 0.00 0.00 0.00 36 1013.3
20260504171037 20 297 6.4 17.7 0.00 0.00 0.00 35 1013.4
20260504170537 20 291 8.0 25.7 0.00 0.00 0.00 36 1013.5
20260504151035 17 288 6.4 20.9 0.00 0.00 0.00 45 1014.6
20260504150535 17 229 6.4 19.3 0.00 0.00 0.00 46 1014.6
20260504141038 16 225 8.0 25.7 0.00 0.00 0.00 48 1014.9
20260504140535 16 215 3.2 25.7 0.00 0.00 0.00 51 1014.7
20260504130537 13 236 6.4 17.7 0.00 0.00 0.00 58 1015.5
20260504110535 6 247 1.6 9.7 0.00 0.00 0.00 77 1016.2
20260504100536 5 0 0.0 1.6 0.00 0.00 0.00 76 1016.0
20260504081538 6 0 0.0 4.8 0.00 0.00 0.00 69 1015.9
20260504081035 6 256 0.0 4.8 0.00 0.00 0.00 70 1015.9
20260504080534 6 263 0.0 4.8 0.00 0.00 0.00 70 1015.8
20260504050535 5 271 0.0 1.6 0.00 0.00 0.00 69 1015.3
20260504045535 5 0 0.0 3.2 0.00 0.00 0.00 71 1015.4
20260504045035 5 0 0.0 3.2 0.00 0.00 0.00 70 1015.3
20260504044549 5 0 0.0 4.8 0.00 0.00 0.00 71 1015.2
20260504044036 5 0 0.0 4.8 0.00 0.00 0.00 72 1015.1
20260504043536 5 0 0.0 0.0 0.00 0.00 0.00 73 1015.2
20260504043043 5 0 0.0 1.6 0.00 0.00 0.00 73 1015.1
20260504042535 5 0 0.0 1.6 0.00 0.00 0.00 73 1015.0
20260504042036 5 0 0.0 1.6 0.00 0.00 0.00 73 1015.1
20260504041545 5 0 0.0 1.6 0.00 0.00 0.00 74 1014.9
20260504041035 5 0 0.0 1.6 0.00 0.00 0.00 74 1014.9
20260504040537 5 0 0.0 1.6 0.00 0.00 0.00 74 1014.8
20260504040048 5 0 0.0 1.6 0.00 0.00 0.00 75 1014.8
20260504035536 5 0 0.0 0.0 0.00 0.00 0.00 74 1014.8
20260504035036 5 0 0.0 0.0 0.00 0.00 0.00 74 1014.7
20260504034547 5 0 0.0 0.0 0.00 0.00 0.00 73 1014.6
20260504034039 5 0 0.0 0.0 0.00 0.00 0.00 73 1014.7
20260504033535 5 0 0.0 0.0 0.00 0.00 0.00 73 1014.5
20260504033055 5 0 0.0 0.0 0.00 0.00 0.00 73 1014.6
20260504032537 5 0 0.0 0.0 0.00 0.00 0.00 72 1014.5
20260504032035 5 0 0.0 1.6 0.00 0.00 0.00 72 1014.5
20260504031559 5 0 0.0 1.6 0.00 0.00 0.00 71 1014.6
20260504031035 5 0 0.0 1.6 0.00 0.00 0.00 71 1014.6
20260504030535 5 0 0.0 1.6 0.00 0.00 0.00 71 1014.6
20260504025537 5 0 0.0 1.6 0.00 0.00 0.00 72 1014.5
20260504025037 5 0 0.0 1.6 0.00 0.00 0.00 70 1014.6
20260504024543 6 0 0.0 1.6 0.00 0.00 0.00 71 1014.5
20260504024037 6 0 0.0 1.6 0.00 0.00 0.00 70 1014.4
20260504023537 6 0 0.0 1.6 0.00 0.00 0.00 70 1014.4
20260504023050 6 0 0.0 0.0 0.00 0.00 0.00 69 1014.4
20260504022538 6 0 0.0 0.0 0.00 0.00 0.00 68 1014.5
20260504022037 6 0 0.0 0.0 0.00 0.00 0.00 67 1014.4
20260504021545 6 0 0.0 1.6 0.00 0.00 0.00 66 1014.4
20260504021038 6 0 0.0 1.6 0.00 0.00 0.00 65 1014.5
20260504020537 6 0 0.0 1.6 0.00 0.00 0.00 64 1014.4
20260504020046 6 0 0.0 0.0 0.00 0.00 0.00 64 1014.4
20260504015537 6 0 0.0 0.0 0.00 0.00 0.00 63 1014.4
20260504015039 6 0 0.0 1.6 0.00 0.00 0.00 63 1014.3
20260504014541 7 0 0.0 1.6 0.00 0.00 0.00 63 1014.3
20260504014037 7 0 0.0 1.6 0.00 0.00 0.00 62 1014.2
20260504013538 7 0 0.0 1.6 0.00 0.00 0.00 62 1014.1
20260504013049 7 0 0.0 1.6 0.00 0.00 0.00 61 1014.1
20260504012537 7 0 0.0 0.0 0.00 0.00 0.00 61 1014.2
20260504012036 7 0 0.0 0.0 0.00 0.00 0.00 60 1014.1
20260504011539 7 0 0.0 0.0 0.00 0.00 0.00 59 1013.9
20260504011039 8 0 0.0 0.0 0.00 0.00 0.00 57 1013.9
20260504010536 8 0 0.0 0.0 0.00 0.00 0.00 55 1013.8
20260504010047 8 0 0.0 1.6 0.00 0.00 0.00 52 1013.7
20260504005537 9 0 0.0 1.6 0.00 0.00 0.00 51 1013.6
20260504005041 9 0 0.0 1.6 0.00 0.00 0.00 48 1013.7
20260504004550 10 0 0.0 1.6 0.00 0.00 0.00 47 1013.5
20260504004036 10 0 0.0 1.6 0.00 0.00 0.00 46 1013.4
20260504003538 10 0 0.0 1.6 0.00 0.00 0.00 45 1013.5
20260504003046 10 0 0.0 1.6 0.00 0.00 0.00 44 1013.4
20260504002536 11 211 0.0 1.6 0.00 0.00 0.00 42 1013.3
20260504002035 11 0 0.0 3.2 0.00 0.00 0.00 41 1013.3
20260504001551 11 0 0.0 3.2 0.00 0.00 0.00 40 1013.2
20260504001036 12 0 0.0 3.2 0.00 0.00 0.00 40 1013.2
20260504000536 12 0 0.0 3.2 0.00 0.00 0.00 38 1013.2
20260504000118 12 249 0.0 3.2 0.00 0.00 0.00 37 1013.1
20260503235536 12 0 0.0 3.2 0.00 0.00 0.00 37 1013.1
20260503235037 12 278 0.0 3.2 0.00 0.00 0.00 37 1013.0
20260503234550 12 258 0.0 3.2 0.00 0.00 0.00 36 1013.0
20260503234036 13 0 0.0 3.2 0.00 0.00 0.00 35 1013.0
20260503233535 13 0 0.0 9.7 0.00 0.00 0.00 34 1012.8
20260503233046 13 281 0.0 9.7 0.00 0.00 0.00 33 1012.8
20260503232535 13 0 1.6 6.4 0.00 0.00 0.00 32 1012.8
20260503232035 14 307 1.6 8.0 0.00 0.00 0.00 32 1012.7
20260503231545 14 225 1.6 8.0 0.00 0.00 0.00 32 1012.8
20260503231036 15 0 0.0 6.4 0.00 0.00 0.00 32 1012.7
20260503230536 15 270 1.6 6.4 0.00 0.00 0.00 32 1012.7
20260503230044 15 0 0.0 4.8 0.00 0.00 0.00 32 1012.7
20260503225536 15 0 0.0 9.7 0.00 0.00 0.00 32 1012.7
20260503225037 14 286 3.2 9.7 0.00 0.00 0.00 31 1012.5
20260503224539 14 237 4.8 16.1 0.00 0.00 0.00 30 1012.5
20260503224036 14 303 4.8 16.1 0.00 0.00 0.00 31 1012.6
20260503223536 14 323 6.4 17.7 0.00 0.00 0.00 30 1012.5
20260503223041 15 234 6.4 17.7 0.00 0.00 0.00 31 1012.5
20260503222535 15 247 4.8 12.9 0.00 0.00 0.00 31 1012.4
20260503222035 15 326 4.8 20.9 0.00 0.00 0.00 30 1012.5
20260503221548 15 280 6.4 20.9 0.00 0.00 0.00 31 1012.4
20260503221037 15 329 4.8 20.9 0.00 0.00 0.00 31 1012.4
20260503220536 15 319 9.7 25.7 0.00 0.00 0.00 30 1012.4
20260503220050 15 315 6.4 25.7 0.00 0.00 0.00 30 1012.5
20260503215536 15 349 6.4 25.7 0.00 0.00 0.00 30 1012.5